This is the latest recevied weather packets stored in our database for station/object YO3FNC-10. If no packets are shown the sender has not sent any weather packets the latest 10 day(s).
| Time | Temp. | Humidity | Pressure | Rain* | Wind** | Luminosity | Snow |
|---|---|---|---|---|---|---|---|
| 1777635160 | 23.33° C | 29% | 1025.6 hPa | - | - | - | - |
| 1777634260 | 23.89° C | 30% | 1025.6 hPa | - | - | - | - |
| 1777633360 | 23.89° C | 30% | 1025.7 hPa | - | - | - | - |
| 1777632460 | 23.89° C | 30% | 1025.9 hPa | - | - | - | - |
| 1777631560 | 23.33° C | 30% | 1025.8 hPa | - | - | - | - |
| 1777630660 | 23.89° C | 29% | 1025.8 hPa | - | - | - | - |
| 1777629760 | 23.33° C | 30% | 1026 hPa | - | - | - | - |
| 1777628860 | 23.33° C | 30% | 1025.9 hPa | - | - | - | - |
| 1777627960 | 23.33° C | 28% | 1026.1 hPa | - | - | - | - |
| 1777627058 | 23.89° C | 29% | 1026.2 hPa | - | - | - | - |
| 1777626158 | 23.33° C | 29% | 1026.3 hPa | - | - | - | - |
| 1777625258 | 23.89° C | 31% | 1026.2 hPa | - | - | - | - |
| 1777624358 | 23.89° C | 33% | 1026.3 hPa | - | - | - | - |
| 1777623458 | 24.44° C | 34% | 1026.3 hPa | - | - | - | - |
| 1777622558 | 24.44° C | 37% | 1026.2 hPa | - | - | - | - |
| 1777621657 | 24.44° C | 36% | 1026.3 hPa | - | - | - | - |
| 1777620756 | 24.44° C | 37% | 1026.1 hPa | - | - | - | - |
| 1777619856 | 24.44° C | 37% | 1026.1 hPa | - | - | - | - |
| 1777618955 | 24.44° C | 37% | 1026.2 hPa | - | - | - | - |
| 1777618055 | 24.44° C | 36% | 1026.1 hPa | - | - | - | - |
| 1777617155 | 24.44° C | 36% | 1026 hPa | - | - | - | - |
| 1777616255 | 24.44° C | 37% | 1026 hPa | - | - | - | - |
| 1777615354 | 24.44° C | 37% | 1026.1 hPa | - | - | - | - |
| 1777614450 | 24.44° C | 37% | 1026.2 hPa | - | - | - | - |
| 1777613550 | 24.44° C | 37% | 1026 hPa | - | - | - | - |
* Rain since midnight (hover to see other rain measurements)
** Current wind speed in m/s (hover to see current wind gust speed)